Tracking 31027 objects as of 19-Jul-2025
HD Live streaming from Space Station
objects crossing your sky now

OPS 9315 (IDSCS 5)

Track OPS 9315 (IDSCS 5) now!
OPS 9315 (IDSCS 5) is classified as:


NORAD ID: 2219
Int'l Code: 1966-053F
Perigee: 33,696.2 km
Apogee: 34,117.8 km
Inclination: 7.9 °
Period: 1,340.8 minutes
Semi major axis: 40277 km
RCS: 0.3162 m2 (medium)
Launch date: June 16, 1966
Source: United States (US)
Launch site: AIR FORCE EASTERN TEST RANGE (AFETR)
Your satellite tracking list
STARLINK-1749
Track 1 satellite(s)




NASA's NSSDC Master Catalog

Two Line Element Set (TLE):
1 02219U 66053F   25196.63302311 -.00000117  00000-0  00000-0 0  9996
2 02219   7.9181  48.4121 0052345 180.3674 179.6766  1.07399248 52912
Source of the keplerian elements: AFSPC